Regional Weather Roundup
Issued by NWS

Home | Current Version | Previous Version | Text Only | Print | Product List | Glossary Off
Versions: 1 2 3 4 5 6 7 8 9 10 11 12 13 14 15 16 17 18 19 20 21 22 23 24 25 26 27 28 29 30 31 32 33 34 35 36 37 38 39 40 41 42 43 44 45 46 47 48 49 50

576
ASUS43 KFSD 270802
RWRSD

WEATHER ROUNDUP FOR SOUTH DAKOTA
NATIONAL WEATHER SERVICE SIOUX FALLS SD
300 AM CDT FRI MAY 27 2016

NOTE: "FAIR" INDICATES FEW OR NO CLOUDS BELOW 12,000 FEET WITH NO
SIGNIFICANT WEATHER AND/OR OBSTRUCTIONS TO VISIBILITY.


SDZ001>005-009-010-012>017-270900-
NORTHWEST AND NORTH CENTRAL SOUTH DAKOTA

CITY           SKY/WX    TMP DP  RH WIND       PRES   REMARKS
BUFFALO          N/A     48  42  80 W5        29.80F
FAITH            N/A     48  40  73 NW6       29.84S
MOBRIDGE       CLEAR     53  47  79 NW3       29.79S
$$

SDZ012>016-024>037-041>051-057-063-072>074-270900-
SOUTHWEST AND SOUTH CENTRAL SOUTH DAKOTA

CITY           SKY/WX    TMP DP  RH WIND       PRES   REMARKS
RAPID CTY ARPT PTCLDY    50  42  74 N12       29.87S
PIERRE         CLOUDY    57  51  80 SW5       29.80R
CUSTER         CLOUDY    44  36  73 N6        29.93S
ELLSWORTH AFB  PTCLDY    51  42  72 NW6       29.87S
PHILIP         CLOUDY    55  47  74 CALM      29.83S
PINE RIDGE     CLOUDY    53  48  83 CALM      29.84S
WINNER         PTSUNNY   60  51  72 S5        29.75F
$$

SDZ004>011-016>023-039-040-270900-
NORTHEAST SOUTH DAKOTA

CITY           SKY/WX    TMP DP  RH WIND       PRES   REMARKS
ABERDEEN       CLOUDY    60  53  77 W8        29.76F
WATERTOWN      CLOUDY    58  51  78 N3        29.78F
BROOKINGS      MOCLDY    60  55  83 S8        29.79S
SISSETON         N/A     55  53  93 S6        29.76F
$$

SDZ017-020-022-023-036>040-048>070-270900-
SOUTHEAST SOUTH DAKOTA

CITY           SKY/WX    TMP DP  RH WIND       PRES   REMARKS
SIOUX FALLS    CLOUDY    58  54  86 S5        29.80F
HURON          CLOUDY    57  54  89 N6        29.76S
MITCHELL       CLOUDY    62  58  86 SE9       29.78S
YANKTON        MOCLDY    61  55  82 CALM      29.78S
$$

ABBREVIATIONS USED IN REMARKS
   TC - TEMPERATURE IN CELSIUS
  WCI - WIND CHILL INDEX
   HX - HEAT INDEX
  VSB - VISIBILITY





USA.gov is the U.S. government's official web portal to all federal, state and local government web resources and services.